This demonstration page uses our WeatherBlox Daily Observations layout. Learn more.

Hourly Observations for June 5, 2020

Temp ( °F °C ) Dew Point ( °F °C ) Humidity (%) Winds ( mph kmh ) Pressure ( in mb ) Visibility ( mi km ) Precip ( " mm )
12:15 am 00:15 Cloudy with Nearby Thunderstorms 64 18 64 18 100 100 Calm 29.94 1014 2.5 4.02335 0.27 6.858
12:35 am 00:35 Cloudy 64 18 64 18 100 100 W 6 9 29.93 1014 7 11.26538 0.31 7.874
12:55 am 00:55 Cloudy with Nearby Thunderstorms 64 18 64 18 100 100 W 7 11 29.94 1014 5 8.0467 0.37 9.398
1:15 am 01:15 Cloudy with Nearby Thunderstorms 64 18 64 18 100 100 W 5 7 29.93 1014 7 11.26538 0.03 0.762
1:35 am 01:35 Mostly Cloudy 64 18 64 18 100 100 SSE 3 6 29.93 1014 7 11.26538 0.08 2.032
1:55 am 01:55 Partly Cloudy 64 18 64 18 100 100 SSE 5 7 29.92 1013 10 16.0934 0.09 2.286
2:15 am 02:15 Partly Cloudy 64 18 64 18 100 100 Calm 29.9 1013 10 16.0934 0 0
2:35 am 02:35 Partly Cloudy 64 18 64 18 100 100 Calm 29.89 1012 10 16.0934 0 0
2:55 am 02:55 Partly Cloudy 63 17 63 17 100 100 SW 5 7 29.91 1013 10 16.0934 0 0
3:15 am 03:15 Partly Cloudy 63 17 63 17 100 100 W 6 9 29.93 1013 10 16.0934 0 0
3:35 am 03:35 Partly Cloudy 63 17 63 17 100 100 WSW 3 6 29.93 1013 10 16.0934 0 0
3:55 am 03:55 Clear 63 17 63 17 100 100 Calm 29.91 1013 10 16.0934 0 0
4:15 am 04:15 Partly Cloudy 63 17 63 17 100 100 SSW 6 9 29.92 1013 10 16.0934 0 0
4:35 am 04:35 Clear 63 17 63 17 100 100 S 3 6 29.92 1013 10 16.0934 0 0
4:55 am 04:55 Partly Cloudy 63 17 63 17 100 100 SSW 3 6 29.92 1013 10 16.0934 0 0
5:15 am 05:15 Partly Cloudy 61 16 61 16 100 100 SW 5 7 29.93 1013 10 16.0934 0 0
5:35 am 05:35 Mostly Cloudy 61 16 61 16 100 100 S 6 9 29.92 1013 10 16.0934 0 0
5:55 am 05:55 Mostly Cloudy 61 16 61 16 100 100 SSW 3 6 29.93 1013 10 16.0934 0 0
6:15 am 06:15 Partly Cloudy 61 16 61 16 100 100 SSW 5 7 29.94 1014 10 16.0934 0 0
6:35 am 06:35 Sunny 61 16 61 16 100 100 SSW 5 7 29.95 1014 10 16.0934 0 0
6:55 am 06:55 Mostly Cloudy 63 17 63 17 100 100 SSW 5 7 29.95 1014 10 16.0934 0 0
7:15 am 07:15 Partly Cloudy 63 17 63 17 100 100 Calm 29.95 1014 10 16.0934 0 0
7:35 am 07:35 Sunny 63 17 63 17 100 100 Calm 29.95 1014 10 16.0934 0 0
7:55 am 07:55 Mostly Cloudy 63 17 63 17 100 100 Calm 29.95 1014 10 16.0934 0 0
8:15 am 08:15 Mostly Cloudy 64 18 64 18 100 100 Calm 29.94 1014 10 16.0934 0.01 0.254
9:55 am 09:55 Cloudy 68 20 66 19 94 94 Calm 29.93 1014 10 16.0934 0 0
10:15 am 10:15 Cloudy 70 21 66 19 88 88 Calm 29.93 1014 10 16.0934 0 0
10:35 am 10:35 Cloudy 72 22 68 20 88 88 S 5 7 29.92 1013 10 16.0934 0 0
10:55 am 10:55 Mostly Cloudy 72 22 68 20 88 88 SW 3 6 29.92 1013 10 16.0934 0 0
11:15 am 11:15 Partly Cloudy 73 23 68 20 83 83 Calm 29.93 1013 10 16.0934 0 0
11:35 am 11:35 Partly Cloudy 75 24 70 21 83 83 S 3 6 29.93 1013 10 16.0934 0 0
11:55 am 11:55 Mostly Cloudy 77 25 70 21 79 79 S 6 9 29.92 1013 10 16.0934 0 0
12:15 pm 12:15 Mostly Cloudy 79 26 70 21 74 74 S 7 11 29.91 1013 10 16.0934 0 0
12:35 pm 12:35 Mostly Cloudy 79 26 70 21 74 74 S 8 13 29.91 1013 10 16.0934 0 0
12:55 pm 12:55 Partly Cloudy 81 27 72 22 74 74 Calm 29.91 1013 10 16.0934 0 0
1:15 pm 13:15 Mostly Cloudy 81 27 70 21 70 70 SSW 9 15 29.9 1013 10 16.0934 0 0
1:35 pm 13:35 Mostly Cloudy 82 28 70 21 66 66 S 6 9 29.88 1012 10 16.0934 0 0
1:55 pm 13:55 Mostly Cloudy 82 28 70 21 66 66 S 8 13 29.87 1012 10 16.0934 0 0
2:15 pm 14:15 Mostly Cloudy 82 28 70 21 66 66 S 6 9 29.86 1011 10 16.0934 0 0
2:35 pm 14:35 Mostly Cloudy 84 29 70 21 62 62 SSW 10 17 29.85 1011 10 16.0934 0 0
2:55 pm 14:55 Partly Cloudy 86 30 70 21 59 59 S 10 17 29.85 1011 10 16.0934 0 0
3:15 pm 15:15 Mostly Cloudy 86 30 70 21 59 59 S 12 19 29.83 1010 10 16.0934 0 0
3:35 pm 15:35 Mostly Cloudy 84 29 70 21 62 62 S 12 19 29.83 1010 10 16.0934 0 0
3:55 pm 15:55 Cloudy 79 26 70 21 74 74 NW 18 30 29.85 1011 10 16.0934 0 0
4:15 pm 16:15 Cloudy 72 22 70 21 94 94 NNW 17 28 29.86 1011 10 16.0934 0 0
4:35 pm 16:35 Cloudy with Nearby Thunderstorms 70 21 70 21 100 100 N 12 19 29.86 1011 3 4.82802 0.11 2.794
4:55 pm 16:55 Cloudy 70 21 70 21 100 100 NE 7 11 29.87 1012 3 4.82802 0.2 5.08
5:15 pm 17:15 Cloudy 70 21 70 21 100 100 NW 9 15 29.87 1012 10 16.0934 0.02 0.508
5:35 pm 17:35 Cloudy with Nearby Thunderstorms 68 20 68 20 100 100 NNE 7 11 29.87 1012 4 6.43736 0.08 2.032
5:55 pm 17:55 Cloudy with Thunderstorms 68 20 68 20 100 100 NNE 6 9 29.89 1012 0.5 0.80467 0.51 12.954
6:15 pm 18:15 Cloudy with Thunderstorms 66 19 66 19 100 100 NE 5 7 29.88 1012 4 6.43736 0.04 1.016
6:35 pm 18:35 Cloudy 66 19 66 19 100 100 Calm 29.88 1012 4 6.43736 0.09 2.286
6:55 pm 18:55 Cloudy 66 19 66 19 100 100 ESE 5 7 29.86 1011 5 8.0467 0.14 3.556
7:15 pm 19:15 Cloudy 66 19 66 19 100 100 Calm 29.86 1011 10 16.0934 0.01 0.254
7:35 pm 19:35 Mostly Cloudy with Nearby Thunderstorms 66 19 66 19 100 100 Calm 29.87 1012 10 16.0934 0.01 0.254
7:55 pm 19:55 Partly Cloudy 66 19 66 19 100 100 Calm 29.87 1012 10 16.0934 0.01 0.254
8:15 pm 20:15 Partly Cloudy 66 19 66 19 100 100 Calm 29.87 1012 10 16.0934 0 0
8:35 pm 20:35 Partly Cloudy 64 18 64 18 100 100 Calm 29.87 1012 10 16.0934 0 0
8:55 pm 20:55 Partly Cloudy 64 18 64 18 100 100 Calm 29.88 1012 10 16.0934 0 0
9:15 pm 21:15 Partly Cloudy 64 18 64 18 100 100 Calm 29.89 1012 10 16.0934 0 0
9:35 pm 21:35 Clear 64 18 64 18 100 100 WSW 3 6 29.9 1013 10 16.0934 0 0
9:55 pm 21:55 Mostly Cloudy 64 18 64 18 100 100 SSW 3 6 29.9 1013 10 16.0934 0 0
10:15 pm 22:15 Mostly Cloudy 64 18 64 18 100 100 SW 3 6 29.9 1013 10 16.0934 0 0
10:35 pm 22:35 Partly Cloudy 64 18 64 18 100 100 Calm 29.91 1013 10 16.0934 0 0
10:55 pm 22:55 Mostly Cloudy 64 18 64 18 100 100 Calm 29.91 1013 10 16.0934 0 0
11:15 pm 23:15 Cloudy 64 18 64 18 100 100 Calm 29.91 1013 10 16.0934 0 0
11:35 pm 23:35 Partly Cloudy 64 18 64 18 100 100 Calm 29.9 1013 10 16.0934 0 0
11:55 pm 23:55 Clear 63 17 63 17 100 100 Calm 29.9 1012 7 11.26538 0 0

Powered by AerisWeather